AAL2897 KMIA-KDCA

Flight info

Callsign AAL2897
Flight time N/A
Altitude 31000
Route FOLZZ3 ALYRA/N0470F320 GRUBR/N0471F310 Y299 SEELO GARIC RANAY TANJA WAVES CAPSS4
Aircraft B738/M-SDE2E3FGHIRWXY/LB1

Departure

Time 2026-05-06 00:59
Airport Miami International Airport (KMIA)

Arrival

Time N/A
Airport Ronald Reagan Washington National Airport (KDCA)
Time Latitude Longitude Altitude Speed Heading
2026-05-06 00:08 25.79904 -80.27266 20 ft 0 kts 171°
2026-05-06 00:49 25.79927 -80.27270 24 ft 4 kts 169°
2026-05-06 00:50 25.79953 -80.27275 25 ft 4 kts 176°
2026-05-06 00:50 25.79980 -80.27274 25 ft 4 kts 200°
2026-05-06 00:50 25.79996 -80.27260 23 ft 3 kts 265°
2026-05-06 00:50 25.79997 -80.27252 24 ft 0 kts 269°
2026-05-06 00:52 25.79996 -80.27278 24 ft 7 kts 268°
2026-05-06 00:53 25.79993 -80.27350 20 ft 13 kts 267°
2026-05-06 00:53 25.79990 -80.27451 17 ft 14 kts 268°
2026-05-06 00:53 25.79986 -80.27563 16 ft 14 kts 267°
2026-05-06 00:53 25.79981 -80.27670 16 ft 14 kts 267°
2026-05-06 00:54 25.79977 -80.27772 14 ft 13 kts 268°
2026-05-06 00:54 25.79976 -80.27866 12 ft 10 kts 284°
2026-05-06 00:54 25.80030 -80.27908 11 ft 10 kts 328°
2026-05-06 00:54 25.80050 -80.27976 10 ft 11 kts 267°
2026-05-06 00:55 25.80044 -80.28103 11 ft 22 kts 267°
2026-05-06 00:55 25.80037 -80.28277 14 ft 23 kts 268°
2026-05-06 00:55 25.80031 -80.28449 14 ft 22 kts 268°
2026-05-06 00:55 25.80026 -80.28617 19 ft 21 kts 267°
2026-05-06 00:56 25.80018 -80.28779 21 ft 21 kts 267°
2026-05-06 00:56 25.80011 -80.28937 19 ft 20 kts 266°
2026-05-06 00:56 25.80004 -80.29090 20 ft 20 kts 267°
2026-05-06 00:56 25.79998 -80.29239 20 ft 19 kts 268°
2026-05-06 00:57 25.79993 -80.29383 16 ft 19 kts 268°
2026-05-06 00:57 25.79986 -80.29551 12 ft 25 kts 267°
2026-05-06 00:57 25.79978 -80.29748 13 ft 25 kts 267°
2026-05-06 00:57 25.79974 -80.29932 10 ft 22 kts 277°
2026-05-06 00:58 25.80008 -80.30077 14 ft 14 kts 287°
2026-05-06 00:58 25.80058 -80.30123 15 ft 9 kts 10°
2026-05-06 00:58 25.80075 -80.30063 12 ft 9 kts 87°
2026-05-06 00:58 25.80080 -80.29923 11 ft 41 kts 88°
2026-05-06 00:59 25.80102 -80.29382 16 ft 98 kts 87°
2026-05-06 00:59 25.80141 -80.28445 16 ft 144 kts 87°
2026-05-06 00:59 25.80197 -80.27241 238 ft 162 kts 86°
2026-05-06 00:59 25.80262 -80.25982 785 ft 165 kts 89°
2026-05-06 01:00 25.80124 -80.24713 1299 ft 168 kts 114°
2026-05-06 01:00 25.79546 -80.23578 1830 ft 174 kts 117°
2026-05-06 01:00 25.78920 -80.22314 2050 ft 198 kts 117°
2026-05-06 01:00 25.78226 -80.20903 2202 ft 218 kts 117°
2026-05-06 01:01 25.77468 -80.19365 2418 ft 232 kts 117°
2026-05-06 01:01 25.76666 -80.17743 2623 ft 251 kts 118°
2026-05-06 01:01 25.75805 -80.16002 3014 ft 263 kts 118°
2026-05-06 01:01 25.74910 -80.14193 3501 ft 271 kts 117°
2026-05-06 01:02 25.74212 -80.12241 4045 ft 275 kts 96°
2026-05-06 01:02 25.74425 -80.10169 4490 ft 278 kts 65°
2026-05-06 01:02 25.75467 -80.08373 5044 ft 277 kts 48°
2026-05-06 01:02 25.76733 -80.06750 5642 ft 280 kts 46°
2026-05-06 01:03 25.78036 -80.05128 6261 ft 282 kts 47°
2026-05-06 01:03 25.79347 -80.03502 6834 ft 286 kts 46°
2026-05-06 01:03 25.80684 -80.01838 7368 ft 290 kts 46°
2026-05-06 01:03 25.82026 -80.00158 7955 ft 293 kts 46°
2026-05-06 01:04 25.83389 -79.98445 8540 ft 297 kts 46°
2026-05-06 01:04 25.84765 -79.96708 9148 ft 301 kts 46°
2026-05-06 01:04 25.86160 -79.94942 9716 ft 306 kts 46°
2026-05-06 01:04 25.87556 -79.93172 10262 ft 312 kts 46°
2026-05-06 01:05 25.89035 -79.91297 10418 ft 332 kts 46°
2026-05-06 01:05 25.90603 -79.89308 10581 ft 351 kts 46°
2026-05-06 01:05 25.92247 -79.87218 10700 ft 368 kts 46°
2026-05-06 01:05 25.93966 -79.85030 10846 ft 383 kts 46°
2026-05-06 01:06 25.95732 -79.82777 11222 ft 389 kts 46°
2026-05-06 01:06 25.97511 -79.80504 11725 ft 391 kts 46°
2026-05-06 01:06 25.99296 -79.78223 12261 ft 392 kts 46°
2026-05-06 01:06 26.01096 -79.75924 12781 ft 395 kts 46°
2026-05-06 01:07 26.02903 -79.73614 13315 ft 397 kts 46°
2026-05-06 01:07 26.04719 -79.71294 13849 ft 399 kts 46°
2026-05-06 01:07 26.06547 -79.68957 14320 ft 402 kts 46°
2026-05-06 01:07 26.08387 -79.66604 14768 ft 405 kts 46°
2026-05-06 01:08 26.10245 -79.64228 15226 ft 408 kts 46°
2026-05-06 01:08 26.12045 -79.61761 15686 ft 413 kts 51°
2026-05-06 01:08 26.13697 -79.59182 16144 ft 416 kts 53°
2026-05-06 01:08 26.15339 -79.56503 16594 ft 419 kts 53°
2026-05-06 01:09 26.16990 -79.53806 17040 ft 423 kts 53°
2026-05-06 01:09 26.18663 -79.51107 17485 ft 425 kts 52°
2026-05-06 01:09 26.20362 -79.48398 17942 ft 428 kts 52°
2026-05-06 01:09 26.22082 -79.45677 18354 ft 431 kts 51°
2026-05-06 01:10 26.23816 -79.42941 18715 ft 434 kts 51°
2026-05-06 01:10 26.25560 -79.40190 19071 ft 436 kts 51°
2026-05-06 01:10 26.27316 -79.37417 19418 ft 439 kts 51°
2026-05-06 01:10 26.29218 -79.34725 19537 ft 443 kts 40°
2026-05-06 01:11 26.31703 -79.32747 19788 ft 439 kts 26°
2026-05-06 01:11 26.34323 -79.30981 20167 ft 440 kts 27°
2026-05-06 01:11 26.36927 -79.29180 20501 ft 442 kts 27°
2026-05-06 01:11 26.39542 -79.27344 20801 ft 445 kts 28°
2026-05-06 01:12 26.42129 -79.25510 21088 ft 447 kts 28°
2026-05-06 01:12 26.44762 -79.23634 21390 ft 449 kts 28°
2026-05-06 01:12 26.47398 -79.21750 21696 ft 452 kts 28°
2026-05-06 01:12 26.50056 -79.19850 21982 ft 454 kts 28°
2026-05-06 01:13 26.52725 -79.17941 22258 ft 456 kts 27°
2026-05-06 01:13 26.54495 -79.16676 22437 ft 457 kts 27°
2026-05-06 01:13 26.57187 -79.14750 22713 ft 459 kts 27°
2026-05-06 01:13 26.59890 -79.12816 22976 ft 462 kts 27°
2026-05-06 01:14 26.65321 -79.08928 23483 ft 465 kts 27°
2026-05-06 01:14 26.68051 -79.06972 23707 ft 467 kts 27°
2026-05-06 01:14 26.70795 -79.05004 23936 ft 469 kts 27°
2026-05-06 01:15 26.73544 -79.03032 24157 ft 470 kts 27°
2026-05-06 01:15 26.76300 -79.01053 24408 ft 471 kts 27°
2026-05-06 01:15 26.79061 -78.99070 24658 ft 471 kts 27°
2026-05-06 01:15 26.81816 -78.97089 24898 ft 472 kts 27°
2026-05-06 01:16 26.84579 -78.95103 25113 ft 473 kts 27°
2026-05-06 01:16 26.87320 -78.93131 25321 ft 474 kts 27°
2026-05-06 01:16 26.90099 -78.91131 25537 ft 475 kts 27°
2026-05-06 01:16 26.92877 -78.89130 25751 ft 476 kts 27°
2026-05-06 01:17 26.95666 -78.87119 25965 ft 476 kts 27°
2026-05-06 01:17 26.98454 -78.85108 26182 ft 477 kts 27°
2026-05-06 01:17 27.01245 -78.83094 26388 ft 478 kts 27°
2026-05-06 01:17 27.04053 -78.81066 26614 ft 478 kts 27°
2026-05-06 01:18 27.06844 -78.79049 26931 ft 476 kts 27°
2026-05-06 01:18 27.09622 -78.77039 27298 ft 473 kts 27°
2026-05-06 01:18 27.12382 -78.75041 27654 ft 471 kts 27°
2026-05-06 01:18 27.15136 -78.73047 27965 ft 470 kts 27°
2026-05-06 01:19 27.17879 -78.71061 28268 ft 469 kts 26°
2026-05-06 01:19 27.20615 -78.69079 28598 ft 467 kts 26°
2026-05-06 01:19 27.23313 -78.67123 28905 ft 467 kts 26°
2026-05-06 01:19 27.26047 -78.65141 29111 ft 469 kts 26°
2026-05-06 01:20 27.28900 -78.63442 29333 ft 458 kts 12°
2026-05-06 01:20 27.31958 -78.62713 29712 ft 444 kts
2026-05-06 01:20 27.35012 -78.62335 30175 ft 440 kts
2026-05-06 01:20 27.38049 -78.61983 30521 ft 437 kts
2026-05-06 01:21 27.41071 -78.61633 30850 ft 435 kts
2026-05-06 01:21 27.44077 -78.61276 31065 ft 435 kts
2026-05-06 01:21 27.50009 -78.60538 31059 ft 427 kts
2026-05-06 01:22 27.55932 -78.59776 31086 ft 431 kts
2026-05-06 01:22 27.61905 -78.59005 31090 ft 437 kts
2026-05-06 01:23 27.67936 -78.58219 31081 ft 436 kts
2026-05-06 01:23 27.73968 -78.57431 31078 ft 436 kts
2026-05-06 01:24 27.79994 -78.56645 31075 ft 435 kts
2026-05-06 01:24 27.86000 -78.55861 31079 ft 434 kts
2026-05-06 01:25 27.91997 -78.55078 31092 ft 434 kts
2026-05-06 01:25 27.97960 -78.54298 31084 ft 433 kts
2026-05-06 01:26 28.03958 -78.53513 31083 ft 433 kts
2026-05-06 01:26 28.09943 -78.52729 31086 ft 433 kts
2026-05-06 01:27 28.15888 -78.51949 31083 ft 433 kts
2026-05-06 01:27 28.21873 -78.51163 31088 ft 433 kts
2026-05-06 01:28 28.27861 -78.50375 31084 ft 433 kts
2026-05-06 01:28 28.33848 -78.49587 31084 ft 433 kts
2026-05-06 01:29 28.39840 -78.48797 31087 ft 433 kts
2026-05-06 01:29 28.45834 -78.48006 31086 ft 433 kts
2026-05-06 01:30 28.51829 -78.47214 31098 ft 434 kts
2026-05-06 01:30 28.57828 -78.46421 31091 ft 434 kts
2026-05-06 01:31 28.63836 -78.45625 31090 ft 434 kts
2026-05-06 01:31 28.69801 -78.44834 31090 ft 434 kts
2026-05-06 01:32 28.75812 -78.44037 31120 ft 434 kts
2026-05-06 01:32 28.81819 -78.43238 31103 ft 435 kts
2026-05-06 01:33 28.87832 -78.42439 31094 ft 435 kts
2026-05-06 01:33 28.93806 -78.41643 31095 ft 434 kts
2026-05-06 01:34 28.99809 -78.40842 31096 ft 434 kts
2026-05-06 01:34 29.05816 -78.40040 31112 ft 434 kts
2026-05-06 01:35 29.11823 -78.39238 31104 ft 434 kts
2026-05-06 01:35 29.17829 -78.38434 31098 ft 434 kts
2026-05-06 01:36 29.23832 -78.37629 31096 ft 434 kts
2026-05-06 01:36 29.29796 -78.36829 31102 ft 434 kts
2026-05-06 01:37 29.35790 -78.36024 31102 ft 434 kts
2026-05-06 01:37 29.41791 -78.35217 31097 ft 434 kts
2026-05-06 01:38 29.47789 -78.34474 31094 ft 430 kts 356°
2026-05-06 01:38 29.50716 -78.34854 31113 ft 420 kts 342°
2026-05-06 01:38 29.53536 -78.35748 31099 ft 420 kts 340°
2026-05-06 01:39 29.59096 -78.37629 31101 ft 420 kts 340°
2026-05-06 01:39 29.64714 -78.39506 31111 ft 421 kts 340°
2026-05-06 01:40 29.70346 -78.41351 31105 ft 421 kts 341°
2026-05-06 01:40 29.75998 -78.43190 31105 ft 421 kts 341°
2026-05-06 01:41 29.81648 -78.45028 31107 ft 421 kts 341°
2026-05-06 01:41 29.87262 -78.46857 31106 ft 422 kts 341°